Weather History for Walla Walla, WA

Change the Weather History Date:

Thursday, August 8, 2013

  Actual Average Record
Temperature  
Mean Temperature 80 °F -  
Max Temperature 95 °F 92 °F 108 °F (1972)
Min Temperature 66 °F 63 °F 52 °F (2004)
Cooling Degree Days 16    
Growing Degree Days 30 (Base 50)    
Moisture  
Dew Point 48 °F    
Average Humidity 33    
Maximum Humidity 51    
Minimum Humidity 17    
Precipitation  
Precipitation 0.00 in - - ()
Sea Level Pressure  
Sea Level Pressure 29.87 in    
Wind  
Wind Speed 9 mph (SSW)    
Max Wind Speed 15 mph    
Max Gust Speed -    
Visibility 10 miles    
Events      
Averages and records for this station are not official NWS values.
T = Trace of Precipitation, MM = Missing Value Source: NWS Daily Summary

Daily Weather History Graph

Daily Weather History Graph

Search for Another Location

Airport:

Trip Planner

Search our weather history database for the weather conditions in past years. The results will help you decide how hot, cold, wet, or windy it might be!

Date:

Astronomy

Aug. 08, 2013 Rise Set
Actual Time 5:44 AM PDT 8:12 PM PDT
Civil Twilight 5:10 AM PDT 8:45 PM PDT
Nautical Twilight 4:28 AM PDT 9:27 PM PDT
Astronomical Twilight 3:40 AM PDT 10:15 PM PDT
Moon 7:45 AM PDT (8/8) 8:41 PM PDT (8/8)
Length of Visible Light 15h 35m
Length of Day
14h 28m
Waxing Crescent, 3% of the Moon is Illuminated
Aug 8
Waxing Crescent
Aug 14
First Quarter
Aug 20
Full
Aug 28
Last Quarter
Sep 5
New

Hourly Weather History & Observations

Time (PDT) Temp. Dew Point Humidity Pressure Visibility Wind Dir Wind Speed Gust Speed Precip Events Conditions
12:53 AM 75.0 °F 50.0 °F 41% 29.89 in 10.0 mi South 15.0 mph - N/A   Clear
1:53 AM 75.0 °F 50.0 °F 41% 29.90 in 10.0 mi South 12.7 mph - N/A   Clear
2:53 AM 73.0 °F 50.0 °F 44% 29.90 in 10.0 mi South 10.4 mph - N/A   Clear
3:53 AM 72.0 °F 50.0 °F 46% 29.91 in 10.0 mi South 5.8 mph - N/A   Clear
4:53 AM 71.1 °F 48.9 °F 45% 29.91 in 10.0 mi South 5.8 mph - N/A   Clear
5:53 AM 66.9 °F 48.0 °F 51% 29.91 in 10.0 mi SSE 3.5 mph - N/A   Clear
6:53 AM 73.0 °F 48.9 °F 42% 29.91 in 10.0 mi SSW 4.6 mph - N/A   Clear
7:53 AM 75.0 °F 50.0 °F 41% 29.92 in 10.0 mi SSW 9.2 mph - N/A   Clear
8:53 AM 77.0 °F 48.9 °F 37% 29.92 in 10.0 mi SSW 5.8 mph - N/A   Clear
9:53 AM 79.0 °F 48.9 °F 35% 29.93 in 10.0 mi SSW 8.1 mph - N/A   Clear
10:53 AM 82.0 °F 48.9 °F 31% 29.91 in 10.0 mi Variable 6.9 mph - N/A   Clear
11:53 AM 84.0 °F 48.0 °F 28% 29.90 in 10.0 mi West 3.5 mph - N/A   Clear
12:53 PM 88.0 °F 48.0 °F 25% 29.88 in 10.0 mi NW 5.8 mph - N/A   Clear
1:53 PM 89.1 °F 45.0 °F 22% 29.86 in 10.0 mi WNW 4.6 mph - N/A   Clear
2:53 PM 91.9 °F 44.1 °F 19% 29.84 in 10.0 mi Variable 3.5 mph - N/A   Clear
3:53 PM 93.9 °F 46.9 °F 20% 29.82 in 10.0 mi West 9.2 mph - N/A   Clear
4:53 PM 95.0 °F 44.1 °F 17% 29.81 in 10.0 mi West 5.8 mph - N/A   Clear
5:53 PM 91.9 °F 46.9 °F 21% 29.81 in 10.0 mi South 5.8 mph - N/A   Clear
6:53 PM 91.0 °F 46.0 °F 21% 29.79 in 10.0 mi WNW 11.5 mph - N/A   Clear
7:53 PM 84.9 °F 50.0 °F 30% 29.81 in 10.0 mi SW 5.8 mph - N/A   Clear
8:53 PM 82.0 °F 48.0 °F 30% 29.81 in 10.0 mi SSE 8.1 mph - N/A   Clear
9:53 PM 77.0 °F 46.9 °F 34% 29.81 in 10.0 mi ESE 6.9 mph - N/A   Clear
10:53 PM 75.9 °F 48.0 °F 37% 29.81 in 10.0 mi ESE 6.9 mph - N/A   Clear
11:53 PM 73.9 °F 48.0 °F 40% 29.82 in 10.0 mi East 5.8 mph - N/A   Clear